Location: Ahausen
(50.4985°N, 8.2722°E)
Time: 11:19:56
(UTC+00:00)

Cosmos 2285 Rocket - Pass Details

Date: 18 September 2020
Orbit: 970 x 1000 km, 74.0° (Epoch: 25 October)

Event Time Altitude Azimuth Distance (km) Brightness Sun altitude
Rises 19:32:57 0° 184° (S) 3,652 6.8 -19.1°
Reaches altitude 10° 19:35:32 10° 180° (S) 2,711 6.1 -19.5°
Maximum altitude 19:41:35 53° 106° (ESE) 1,191 4.1 -20.3°
Drops below altitude 10° 19:47:43 10° 31° (NNE) 2,746 6.3 -21.2°
Sets 19:50:20 0° 27° (NNE) 3,702 7.1 -21.5°
